Location: Munderkingen
(48.2395°N, 9.6433°E)
Time: 10:34:25
(UTC+01:00)

ISS - Pass Details

Date: 13 November 2017
Orbit: 402 x 407 km, 51.6° (Epoch: 24 November)

Event Time Altitude Azimuth Distance (km) Brightness Sun altitude
Exits shadow 05:02:31 37° 72° (ENE) 641 -2.4 -23.8°
Drops below altitude 10° 05:04:45 10° 94° (E) 1,455 0.1 -23.4°
Sets 05:06:51 0° 98° (E) 2,313 1.5 -23.0°
